Time,TemperatureF,DewpointF,PressureIn,WindDirection,WindDirectionDegrees,WindSpeedMPH,WindSpeedGustMPH,Humidity,HourlyPrecipIn,Conditions,Clouds,dailyrainin,SoftwareType,DateUTC
2013-09-25 00:12:00,66.0,65.0,29.85,ENE,78,0.0,1.0,95,0.01,,,0.19,,2013-09-25 05:12:00,
2013-09-25 00:23:00,66.0,65.0,29.85,SSE,157,0.0,2.0,95,0.01,,,0.19,,2013-09-25 05:23:00,
2013-09-25 00:53:00,66.0,65.0,29.85,SSE,157,0.0,0.0,95,0.01,,,0.19,,2013-09-25 05:53:00,
2013-09-25 01:13:00,65.0,64.0,29.85,SSE,157,0.0,1.0,95,0.00,,,0.19,,2013-09-25 06:13:00,
2013-09-25 01:23:00,65.0,64.0,29.85,SSE,157,0.0,0.0,96,0.00,,,0.19,,2013-09-25 06:23:00,
2013-09-25 01:42:00,65.0,64.0,29.85,SSE,157,0.0,0.0,95,0.00,,,0.19,,2013-09-25 06:42:00,
2013-09-25 01:52:00,65.0,64.0,29.84,SSE,157,0.0,0.0,96,0.00,,,0.19,,2013-09-25 06:52:00,
2013-09-25 02:11:00,64.0,63.0,29.84,SSE,157,0.0,0.0,96,0.00,,,0.19,,2013-09-25 07:11:00,
2013-09-25 02:21:00,64.0,63.0,29.83,SSE,157,0.0,0.0,95,0.00,,,0.19,,2013-09-25 07:21:00,
2013-09-25 02:42:00,64.0,63.0,29.83,SSE,157,0.0,0.0,96,0.00,,,0.19,,2013-09-25 07:42:00,
2013-09-25 02:53:00,64.0,63.0,29.83,SSE,157,0.0,0.0,96,0.00,,,0.19,,2013-09-25 07:53:00,
2013-09-25 03:11:00,64.0,63.0,29.83,SSE,157,0.0,0.0,95,0.00,,,0.19,,2013-09-25 08:11:00,
2013-09-25 03:21:00,64.0,63.0,29.83,SSE,157,0.0,0.0,96,0.00,,,0.19,,2013-09-25 08:21:00,
2013-09-25 03:42:00,64.0,63.0,29.82,SSE,157,0.0,0.0,96,0.00,,,0.19,,2013-09-25 08:42:00,
2013-09-25 03:52:00,64.0,63.0,29.83,SSE,157,0.0,0.0,96,0.00,,,0.19,,2013-09-25 08:52:00,
2013-09-25 04:11:00,65.0,64.0,29.84,SSE,157,0.0,1.0,97,0.00,,,0.19,,2013-09-25 09:11:00,
2013-09-25 04:22:00,65.0,64.0,29.83,SSE,157,0.0,1.0,96,0.00,,,0.19,,2013-09-25 09:22:00,
2013-09-25 04:43:00,65.0,64.0,29.84,SSE,157,0.0,0.0,97,0.00,,,0.19,,2013-09-25 09:43:00,
2013-09-25 04:53:00,65.0,64.0,29.83,SE,127,0.0,1.0,96,0.00,,,0.19,,2013-09-25 09:53:00,
2013-09-25 05:12:00,65.0,64.0,29.83,SE,127,0.0,1.0,96,0.00,,,0.19,,2013-09-25 10:12:00,
2013-09-25 05:23:00,65.0,64.0,29.83,SE,127,0.0,1.0,96,0.00,,,0.19,,2013-09-25 10:23:00,
2013-09-25 05:42:00,64.0,63.0,29.83,ESE,107,0.0,1.0,96,0.00,,,0.19,,2013-09-25 10:42:00,
2013-09-25 05:53:00,64.0,63.0,29.83,ESE,107,0.0,0.0,96,0.00,,,0.19,,2013-09-25 10:53:00,
2013-09-25 06:12:00,64.0,63.0,29.83,ESE,107,0.0,1.0,96,0.00,,,0.19,,2013-09-25 11:12:00,
2013-09-25 06:22:00,64.0,63.0,29.84,East,81,0.0,1.0,96,0.00,,,0.19,,2013-09-25 11:22:00,
2013-09-25 06:43:00,63.0,62.0,29.84,NE,41,0.0,1.0,96,0.00,,,0.19,,2013-09-25 11:43:00,
2013-09-25 06:52:00,63.0,62.0,29.84,East,85,0.0,1.0,96,0.00,,,0.19,,2013-09-25 11:52:00,
2013-09-25 07:12:00,64.0,63.0,29.85,ENE,70,0.0,3.0,97,0.00,,,0.19,,2013-09-25 12:12:00,
2013-09-25 07:22:00,64.0,63.0,29.85,NE,52,0.0,3.0,97,0.00,,,0.19,,2013-09-25 12:22:00,
2013-09-25 07:52:00,65.0,64.0,29.86,East,88,0.0,3.0,97,0.00,,,0.19,,2013-09-25 12:52:00,
2013-09-25 08:11:00,65.0,64.0,29.87,ENE,61,0.0,4.0,97,0.00,,,0.19,,2013-09-25 13:11:00,
2013-09-25 08:22:00,65.0,64.0,29.87,ENE,76,0.0,2.0,97,0.00,,,0.19,,2013-09-25 13:22:00,
2013-09-25 08:52:00,66.0,65.0,29.87,East,80,0.0,2.0,97,0.00,,,0.19,,2013-09-25 13:52:00,
2013-09-25 09:11:00,66.0,65.0,29.87,East,79,0.0,3.0,96,0.00,,,0.19,,2013-09-25 14:11:00,
2013-09-25 09:22:00,67.0,66.0,29.87,ENE,59,0.0,3.0,95,0.00,,,0.19,,2013-09-25 14:22:00,
2013-09-25 09:43:00,68.0,66.0,29.87,East,85,2.0,6.0,94,0.00,,,0.19,,2013-09-25 14:43:00,
2013-09-25 09:52:00,69.0,67.0,29.87,ENE,59,0.0,6.0,93,0.00,,,0.19,,2013-09-25 14:52:00,
2013-09-25 10:11:00,70.0,67.0,29.87,SSE,165,0.0,4.0,90,0.00,,,0.19,,2013-09-25 15:11:00,
2013-09-25 10:22:00,71.0,67.0,29.87,South,171,0.0,5.0,88,0.00,,,0.19,,2013-09-25 15:22:00,
2013-09-25 10:44:00,71.0,67.0,29.87,SE,140,0.0,2.0,87,0.00,,,0.19,,2013-09-25 15:44:00,
2013-09-25 10:53:00,72.0,68.0,29.87,SSW,206,1.0,4.0,86,0.00,,,0.19,,2013-09-25 15:53:00,
2013-09-25 11:13:00,73.0,68.0,29.87,East,86,1.0,4.0,84,0.00,,,0.19,,2013-09-25 16:13:00,
2013-09-25 11:23:00,73.0,68.0,29.88,East,81,0.0,3.0,84,0.00,,,0.19,,2013-09-25 16:23:00,
2013-09-25 11:43:00,73.0,68.0,29.88,East,86,1.0,5.0,83,0.00,,,0.19,,2013-09-25 16:43:00,
2013-09-25 11:53:00,74.0,68.0,29.87,NE,38,1.0,4.0,81,0.00,,,0.19,,2013-09-25 16:53:00,
2013-09-25 12:13:00,75.0,67.0,29.87,ESE,110,1.0,8.0,77,0.00,,,0.19,,2013-09-25 17:13:00,
2013-09-25 12:23:00,75.0,67.0,29.87,NE,53,0.0,3.0,77,0.00,,,0.19,,2013-09-25 17:23:00,
2013-09-25 12:43:00,75.0,66.0,29.86,ESE,116,1.0,7.0,73,0.00,,,0.19,,2013-09-25 17:43:00,
2013-09-25 12:52:00,76.0,66.0,29.86,ESE,102,3.0,7.0,72,0.00,,,0.19,,2013-09-25 17:52:00,
2013-09-25 13:13:00,76.0,66.0,29.86,SE,139,2.0,5.0,71,0.00,,,0.19,,2013-09-25 18:13:00,
2013-09-25 13:22:00,76.0,66.0,29.86,ENE,76,1.0,5.0,71,0.00,,,0.19,,2013-09-25 18:22:00,
2013-09-25 13:42:00,78.0,67.0,29.85,East,92,2.0,7.0,68,0.00,,,0.19,,2013-09-25 18:42:00,
2013-09-25 13:52:00,77.0,67.0,29.85,NE,42,1.0,7.0,71,0.00,,,0.19,,2013-09-25 18:52:00,
2013-09-25 14:11:00,77.0,66.0,29.85,ESE,111,2.0,4.0,68,0.00,,,0.19,,2013-09-25 19:11:00,
2013-09-25 14:22:00,77.0,66.0,29.85,SE,132,1.0,6.0,68,0.00,,,0.19,,2013-09-25 19:22:00,
2013-09-25 14:42:00,77.0,66.0,29.84,South,175,2.0,4.0,69,0.00,,,0.19,,2013-09-25 19:42:00,
2013-09-25 14:52:00,79.0,68.0,29.84,SE,145,2.0,7.0,68,0.00,,,0.19,,2013-09-25 19:52:00,
2013-09-25 15:12:00,78.0,66.0,29.84,ENE,61,1.0,7.0,67,0.00,,,0.19,,2013-09-25 20:12:00,
2013-09-25 15:22:00,78.0,67.0,29.84,ENE,77,3.0,5.0,68,0.00,,,0.19,,2013-09-25 20:22:00,
2013-09-25 15:43:00,78.0,66.0,29.84,ENE,62,1.0,7.0,66,0.00,,,0.19,,2013-09-25 20:43:00,
2013-09-25 15:52:00,79.0,66.0,29.83,ESE,113,2.0,7.0,64,0.00,,,0.19,,2013-09-25 20:52:00,
2013-09-25 16:12:00,80.0,66.0,29.83,East,94,1.0,5.0,63,0.00,,,0.19,,2013-09-25 21:12:00,
2013-09-25 16:22:00,80.0,66.0,29.83,ESE,102,2.0,8.0,62,0.00,,,0.19,,2013-09-25 21:22:00,
2013-09-25 16:44:00,79.0,67.0,29.83,ENE,76,0.0,2.0,66,0.00,,,0.19,,2013-09-25 21:44:00,
2013-09-25 16:54:00,79.0,67.0,29.83,ESE,114,0.0,7.0,66,0.00,,,0.19,,2013-09-25 21:54:00,
2013-09-25 17:14:00,79.0,67.0,29.84,East,82,0.0,4.0,66,0.00,,,0.19,,2013-09-25 22:14:00,
2013-09-25 17:23:00,79.0,66.0,29.84,ESE,110,1.0,5.0,65,0.00,,,0.19,,2013-09-25 22:23:00,
2013-09-25 17:42:00,79.0,66.0,29.84,ESE,118,2.0,4.0,64,0.00,,,0.19,,2013-09-25 22:42:00,
2013-09-25 17:53:00,78.0,66.0,29.84,ENE,69,2.0,6.0,66,0.00,,,0.19,,2013-09-25 22:53:00,
2013-09-25 18:12:00,78.0,66.0,29.84,East,82,1.0,5.0,67,0.00,,,0.19,,2013-09-25 23:12:00,
2013-09-25 18:22:00,78.0,65.0,29.84,East,88,1.0,5.0,64,0.00,,,0.19,,2013-09-25 23:22:00,
2013-09-25 18:42:00,77.0,65.0,29.85,East,88,0.0,3.0,66,0.00,,,0.19,,2013-09-25 23:42:00,
2013-09-25 18:53:00,77.0,66.0,29.85,East,86,0.0,2.0,68,0.00,,,0.19,,2013-09-25 23:53:00,
2013-09-25 19:12:00,76.0,65.0,29.85,East,86,0.0,1.0,70,0.00,,,0.19,,2013-09-26 00:12:00,
2013-09-25 19:22:00,75.0,66.0,29.85,East,86,0.0,1.0,74,0.00,,,0.19,,2013-09-26 00:22:00,
2013-09-25 19:42:00,74.0,66.0,29.85,East,86,0.0,0.0,77,0.00,,,0.19,,2013-09-26 00:42:00,
2013-09-25 19:52:00,72.0,65.0,29.86,East,86,0.0,1.0,80,0.00,,,0.19,,2013-09-26 00:52:00,
2013-09-25 20:12:00,71.0,65.0,29.86,East,86,0.0,0.0,82,0.00,,,0.19,,2013-09-26 01:12:00,
2013-09-25 20:22:00,70.0,65.0,29.86,East,86,0.0,0.0,84,0.00,,,0.19,,2013-09-26 01:22:00,
2013-09-25 20:42:00,69.0,64.0,29.87,East,83,0.0,2.0,85,0.00,,,0.19,,2013-09-26 01:42:00,
2013-09-25 20:52:00,68.0,64.0,29.87,East,83,0.0,0.0,88,0.00,,,0.18,,2013-09-26 01:52:00,
2013-09-25 21:12:00,67.0,63.0,29.87,East,86,0.0,2.0,88,0.00,,,0.18,,2013-09-26 02:12:00,
2013-09-25 21:21:00,67.0,64.0,29.88,East,86,0.0,0.0,91,0.00,,,0.18,,2013-09-26 02:21:00,
2013-09-25 22:12:00,66.0,64.0,29.88,East,86,0.0,0.0,92,0.00,,,0.07,,2013-09-26 03:12:00,
2013-09-25 22:22:00,65.0,62.0,29.89,East,86,0.0,1.0,91,0.00,,,0.07,,2013-09-26 03:22:00,
2013-09-25 22:44:00,65.0,63.0,29.89,East,86,0.0,0.0,93,0.00,,,0.07,,2013-09-26 03:44:00,
2013-09-25 22:54:00,65.0,63.0,29.89,East,86,0.0,0.0,93,0.00,,,0.01,,2013-09-26 03:54:00,
2013-09-25 23:14:00,64.0,62.0,29.90,East,86,0.0,1.0,92,0.00,,,0.01,,2013-09-26 04:14:00,
2013-09-25 23:24:00,64.0,62.0,29.90,East,86,0.0,0.0,93,0.00,,,0.01,,2013-09-26 04:24:00,
2013-09-25 23:54:00,64.0,62.0,29.90,East,86,0.0,0.0,93,0.00,,,0.01,,2013-09-26 04:54:00,